User: anonymous   Login
Location: Caltech
(34.1382°N, 118.1253°W)
Time: 02:44:29
(UTC-07:00)
Language:

NOAA 19 - Orbit

View from above orbital plane
View from above orbital plane
View from above satellite
View from above satellite

Ground track
Ground track

The orbit data is extracted from the following two-line orbital elements,

1 33591U 09005A   15091.49091694  .00000339  00000-0  20991-3 0  9992
2 33591 098.9825 041.2179 0014707 030.2212 329.9805 14.11902146316664
Epoch (UTC): 01 April 2015 11:46:55
Eccentricity: 0.0014707
inclination: 98.9825°
perigee height: 842 km
apogee height: 863 km
right ascension of ascending node: 41.2179°
argument of perigee: 30.2212°
revolutions per day: 14.11902146
mean anomaly at epoch: 329.9805°
orbit number at epoch: 31666

The dashed part of the orbit path shows where the satellite is in the earth's shadow,  

DLR